Weather History for KSSF - October, 2014

Change the Weather History Date:

Saturday, October 11, 2014

  Actual Average (KSAT) Record (KSAT)
Temperature  
Mean Temperature 71 °F 73 °F  
Max Temperature 79 °F 84 °F 96 °F (1926)
Min Temperature 64 °F 62 °F 43 °F (1990)
Degree Days  
Heating Degree Days 0 0  
Month to date heating degree days 0  
Since 1 July heating degree days 2  
Cooling Degree Days 6 8  
Month to date cooling degree days 100  
Year to date cooling degree days 2934  
Growing Degree Days 21 (Base 50)    
Moisture  
Dew Point 65 °F    
Average Humidity 80    
Maximum Humidity 100    
Minimum Humidity 64    
Precipitation  
Precipitation 0.17 in 0.14 in 1.67 in (1973)
Month to date precipitation 1.40  
Year to date precipitation 25.37  
Snow  
Snow 0.00 in - - ()
Month to date snowfall  
Since 1 July snowfall  
Since 1 September snowfall  
Snow Depth -    
Sea Level Pressure  
Sea Level Pressure 29.99 in    
Wind  
Wind Speed 8 mph (NE)    
Max Wind Speed 18 mph    
Max Gust Speed 32 mph    
Visibility 9 miles    
Events Rain , Thunderstorm    
T = Trace of Precipitation, MM = Missing Value Source: NWS Daily Summary

Daily Weather History Graph

Daily Weather History Graph

Search for Another Location

Airport or City:

Trip Planner

Search our weather history database for the weather conditions in past years. The results will help you decide how hot, cold, wet, or windy it might be!

Date:

Astronomy

Oct. 11, 2014 Rise Set
Actual Time 7:32 AM CDT 7:07 PM CDT
Civil Twilight 7:08 AM CDT 7:31 PM CDT
Nautical Twilight 6:41 AM CDT 7:59 PM CDT
Astronomical Twilight 6:13 AM CDT 8:26 PM CDT
Moon 9:50 PM CDT (10/11) 10:45 AM CDT (10/11)
Length of Visible Light 12h 22m
Length of Day
11h 35m
Waning Gibbous, 87% of the Moon is Illuminated
Oct 11
Waning Gibbous
Oct 15
Last Quarter
Oct 23
New
Oct 30
First Quarter
Nov 6
Full

Hourly Weather History & Observations

Time (CDT) Temp. Dew Point Humidity Pressure Visibility Wind Dir Wind Speed Gust Speed Precip Events Conditions
12:53 AM 78.1 °F 72.0 °F 81% 29.88 in 10.0 mi SSE 4.6 mph - N/A   Overcast
1:53 AM 78.1 °F 73.0 °F 84% 29.88 in 10.0 mi South 9.2 mph - N/A   Overcast
2:53 AM 77.0 °F 73.0 °F 88% 29.88 in 10.0 mi SSE 6.9 mph - N/A   Overcast
3:53 AM 77.0 °F 73.0 °F 88% 29.87 in 10.0 mi SSE 6.9 mph - N/A   Mostly Cloudy
4:53 AM 77.0 °F 73.0 °F 88% 29.88 in 10.0 mi South 8.1 mph - N/A   Overcast
5:33 AM 77.0 °F 73.0 °F 88% 29.93 in 10.0 mi SSE 4.6 mph - N/A   Overcast
5:53 AM 77.0 °F 73.0 °F 88% 29.91 in 10.0 mi Calm Calm - N/A   Overcast
6:53 AM 77.0 °F 73.9 °F 90% 29.93 in 10.0 mi SE 3.5 mph - N/A   Overcast
7:44 AM 77.0 °F 73.0 °F 88% 29.96 in 10.0 mi SE 3.5 mph - N/A   Mostly Cloudy
7:53 AM 77.0 °F 73.9 °F 90% 29.93 in 10.0 mi ESE 5.8 mph - N/A   Overcast
8:01 AM 77.0 °F 73.9 °F 90% 29.96 in 10.0 mi ESE 5.8 mph - N/A   Overcast
8:41 AM 78.1 °F 73.9 °F 87% 30.00 in 10.0 mi Calm Calm - N/A   Overcast
8:53 AM 78.1 °F 73.9 °F 87% 29.97 in 10.0 mi Calm Calm - N/A   Overcast
9:19 AM 71.1 °F 63.0 °F 75% 30.04 in 10.0 mi North 18.4 mph 32.2 mph N/A Thunderstorm Overcast
9:36 AM 68.0 °F 64.9 °F 90% 30.04 in 2.5 mi NNW 9.2 mph - 0.05 in Rain , Thunderstorm Heavy Rain
9:40 AM 68.0 °F 64.9 °F 90% 30.04 in 1.5 mi North 6.9 mph - 0.08 in Rain , Thunderstorm Heavy Rain
9:51 AM 66.2 °F 66.2 °F 100% 30.04 in 2.5 mi NNE 8.1 mph - 0.12 in Rain Light Rain
9:53 AM 66.9 °F 66.0 °F 97% 30.01 in 3.0 mi NE 8.1 mph - 0.12 in Rain Light Rain
10:23 AM 68.0 °F 66.0 °F 93% 30.04 in 10.0 mi NE 9.2 mph - 0.00 in Rain Light Rain
10:40 AM 68.0 °F 66.0 °F 93% 30.04 in 10.0 mi NNE 10.4 mph - 0.00 in   Overcast
10:53 AM 66.9 °F 64.9 °F 93% 30.03 in 10.0 mi NNE 12.7 mph 18.4 mph 0.00 in Rain Light Rain
11:49 AM 66.2 °F 62.6 °F 88% 30.06 in 10.0 mi NNE 9.2 mph - 0.05 in   Overcast
11:53 AM 66.9 °F 64.0 °F 90% 30.03 in 10.0 mi NNE 11.5 mph - 0.05 in   Overcast
12:23 PM 70.0 °F 64.0 °F 81% 30.05 in 10.0 mi NNE 12.7 mph - N/A   Overcast
12:53 PM 72.0 °F 63.0 °F 73% 30.02 in 10.0 mi NNE 12.7 mph - N/A   Overcast
1:31 PM 73.0 °F 62.1 °F 68% 30.03 in 10.0 mi NNE 13.8 mph 19.6 mph N/A   Overcast
1:40 PM 72.0 °F 61.0 °F 68% 30.03 in 10.0 mi NNE 13.8 mph - N/A   Overcast
1:53 PM 72.0 °F 61.0 °F 68% 29.99 in 10.0 mi North 15.0 mph - N/A   Overcast
2:39 PM 73.0 °F 61.0 °F 66% 30.01 in 10.0 mi NNE 12.7 mph - N/A   Overcast
2:53 PM 71.1 °F 60.1 °F 68% 29.99 in 10.0 mi North 10.4 mph 19.6 mph N/A   Overcast
3:02 PM 71.1 °F 60.1 °F 68% 30.01 in 10.0 mi NNE 11.5 mph - N/A   Overcast
3:22 PM 73.0 °F 60.1 °F 64% 30.01 in 10.0 mi NNE 8.1 mph - N/A   Overcast
3:53 PM 73.0 °F 60.1 °F 64% 29.98 in 10.0 mi NE 12.7 mph - N/A   Overcast
4:53 PM 72.0 °F 60.1 °F 66% 29.97 in 10.0 mi NE 11.5 mph - N/A   Overcast
5:22 PM 70.0 °F 59.0 °F 68% 30.00 in 10.0 mi North 13.8 mph - N/A   Overcast
5:36 PM 70.0 °F 57.9 °F 65% 30.00 in 10.0 mi NNE 11.5 mph - N/A   Overcast
5:53 PM 69.1 °F 57.9 °F 68% 29.98 in 10.0 mi NNE 10.4 mph - N/A   Overcast
6:53 PM 66.9 °F 57.0 °F 70% 29.99 in 10.0 mi NNE 10.4 mph - N/A   Overcast
7:53 PM 66.9 °F 57.0 °F 70% 29.99 in 10.0 mi NNE 10.4 mph - N/A   Overcast
8:53 PM 66.0 °F 57.0 °F 73% 30.00 in 10.0 mi NNE 11.5 mph - N/A   Overcast
9:53 PM 64.9 °F 57.0 °F 75% 30.02 in 10.0 mi NNE 8.1 mph - N/A   Scattered Clouds
10:39 PM 64.9 °F 57.0 °F 75% 30.04 in 10.0 mi NNE 8.1 mph - N/A   Overcast
10:53 PM 64.9 °F 57.0 °F 75% 30.02 in 10.0 mi NNE 6.9 mph - N/A   Overcast
11:53 PM 66.0 °F 57.0 °F 73% 30.01 in 10.0 mi NNE 6.9 mph - N/A   Overcast